#timestamp,LO_Frequency,Hit,StdDev 
1503349215.7,286047002.5,N,1.3
1503349235.5,286047002.8,N,1.2
1503349255.3,286047002.3,N,1.1
1503349275.2,286047002.8,N,1.1
1503349295.0,286047000.1,N,1.1
1503349295.9,286047000.1,N,1.1
1503349315.8,286047002.7,N,1.2
1503349335.6,286047002.3,N,1.1
1503349355.4,286047002.5,N,1.1
1503349375.3,286047001.7,N,1.1
1503349395.1,286047004.4,Y,0.0
1503349415.9,286047001.1,P,0.2
1503349435.7,286047000.9,P,0.2
1503349455.5,286047000.4,N,0.4
1503349475.4,286047000.7,N,0.4
1503349495.2,286047000.3,N,0.4
1503349515.0,286047001.1,N,0.4
1503349516.0,286047001.1,N,0.4
1503349535.8,286047001.0,N,0.4
1503349555.6,286046999.7,N,0.5
1503349575.5,286046999.9,N,0.5
1503349595.3,286046999.9,N,0.6
1503349615.1,286046999.9,N,0.6
1503349635.9,286047002.7,Y,0.0
1503349655.7,286047000.2,P,0.2
1503349675.6,286046999.8,N,0.3
1503349695.4,286047000.9,N,0.4
1503349715.2,286046998.4,Y,0.0
1503349735.1,286047001.1,P,0.4
1503349736.0,286047001.1,N,0.3
1503349755.8,286047000.6,N,0.3
1503349775.7,286047002.8,Y,0.0
1503349795.5,286047000.2,P,0.3
1503349815.3,286047000.9,N,0.3
1503349835.2,286047001.2,P,0.4
1503349855.0,286047000.5,N,0.3
1503349855.9,286047000.5,N,0.3
1503349875.8,286047000.8,N,0.3
1503349895.6,286047000.0,N,0.4
1503349915.4,286047000.0,N,0.4
1503349935.3,286046999.9,N,0.4
1503349955.1,286047002.6,Y,0.0
1503349975.9,286047000.5,P,0.0
1503349995.7,286047000.1,P,0.2
1503350015.5,286046999.8,N,0.3
1503350035.4,286047000.2,N,0.3
1503350055.2,286047000.3,N,0.2
1503350075.1,286047000.6,N,0.3
1503350076.0,286047000.6,N,0.3
1503350095.8,286046999.9,N,0.3
1503350115.6,286047000.5,N,0.3
1503350135.5,286047001.0,Y,0.0
1503350155.3,286046998.5,P,0.9
1503350175.2,286046998.6,N,0.8
1503350195.9,286047000.9,N,1.0
1503350215.7,286047000.8,N,1.1
1503350235.6,286047000.9,N,1.0
1503350255.4,286047000.1,N,1.0
1503350275.2,286046999.9,N,0.9
1503350295.1,286047000.3,N,0.9
1503350296.0,286047000.3,N,0.8
1503350315.8,286047000.7,N,0.8
1503350335.7,286046999.9,N,0.8
1503350355.5,286047001.0,N,0.8
1503350375.3,286047000.4,N,0.8
1503350395.2,286047002.8,Y,0.0
1503350415.0,286047002.6,P,1.2
1503350415.9,286047002.6,N,1.1
1503350435.8,286047002.7,N,1.1
1503350455.6,286047001.8,N,1.0
1503350475.4,286047002.4,N,0.9
1503350495.3,286047002.5,N,0.8
1503350515.1,286047002.3,N,0.8
1503350535.9,286047000.1,N,1.0
1503350555.7,286047002.2,N,0.9
1503350575.5,286047002.1,N,0.9
1503350595.4,286047002.6,N,0.9
1503350615.2,286047000.3,N,1.0
1503350635.1,286047002.8,N,0.9
1503350636.0,286047011.9,Y,0.0
1503350655.8,286046999.4,P,1.3
1503350675.6,286046999.0,N,1.3
1503350695.5,286046998.9,N,1.2
1503350715.3,286046998.9,N,1.2
1503350735.2,286046998.9,N,1.1
1503350755.9,286046999.1,N,1.0
1503350775.7,286046999.2,N,1.0
1503350795.6,286046998.8,N,0.9
1503350815.4,286046999.5,N,0.9
1503350835.2,286046998.9,N,0.9
1503350885.1,286046999.1,E,nan
1503350895.0,286046998.3,N,0.0
1503350895.9,286046998.3,P,0.0
1503350915.8,286046998.8,P,0.2
1503350935.6,286047001.1,Y,0.0
1503350955.5,286047001.6,P,1.6
1503350975.3,286047002.8,N,1.8
1503350995.1,286047002.1,N,1.7
1503351015.9,286047001.8,N,1.5
1503351035.7,286047001.7,N,1.4
1503351055.6,286047001.8,N,1.3
1503351075.4,286047002.6,N,1.3
1503351095.2,286046999.8,N,1.3
1503351115.1,286047000.2,N,1.3
1503351116.0,286047000.2,N,1.3
1503351135.8,286047002.6,N,1.3
1503351155.6,286047001.8,N,1.2
1503351175.5,286047002.1,N,1.2
1503351195.3,286047004.3,Y,0.0
1503351215.2,286047004.0,P,1.3
1503351235.0,286047002.1,N,1.1
1503351235.9,286047002.1,N,1.0
1503351255.7,286047002.2,N,0.9
1503351275.6,286047002.5,N,0.8
1503351295.4,286047004.0,Y,0.0
1503351315.3,286046999.9,P,1.2
1503351335.1,286046998.2,N,1.7
1503351355.8,286046999.1,N,1.6
1503351375.7,286046996.9,N,1.8
1503351395.5,286046997.1,N,1.9
1503351415.4,286046997.4,N,1.8
1503351435.2,286046997.1,N,1.8
1503351455.0,286046996.7,N,1.8
1503351455.9,286046996.7,N,1.7
1503351475.8,286046997.0,N,1.7
1503351495.6,286046997.8,N,1.6
1503351515.5,286046995.6,N,1.7
1503351535.3,286046994.9,Y,0.0
1503351555.1,286046996.5,P,0.7
1503351575.9,286046999.2,N,1.1
1503351595.7,286046998.9,N,1.1
1503351615.6,286046998.4,N,1.0
1503351635.4,286046998.3,N,0.9
1503351655.2,286046998.5,N,0.8
1503351675.1,286047001.1,N,1.2
1503351676.0,286047001.1,N,1.4
1503351695.8,286047001.1,N,1.5
1503351715.7,286046998.2,N,1.4
1503351735.5,286047000.4,N,1.4
1503351755.3,286047001.0,N,1.5
1503351775.2,286046998.5,N,1.4
1503351795.0,286047000.7,N,1.4
1503351795.9,286047000.7,N,1.4
1503351815.8,286046998.3,N,1.4
1503351835.6,286046998.4,N,1.4
1503351855.4,286046998.9,N,1.3
1503351875.3,286046999.6,N,1.3
1503351895.1,286046997.4,N,1.3
1503351915.9,286046997.7,N,1.3
1503351935.7,286046996.7,N,1.4
1503351955.5,286046997.1,N,1.4
1503351975.4,286046997.2,N,1.4
1503351995.2,286046997.4,N,1.4
1503352015.0,286046997.0,N,1.5
1503352015.9,286046997.0,N,1.5
1503352035.8,286046997.3,N,1.5
1503352055.6,286046997.0,N,1.5
1503352075.5,286046996.7,N,1.5
1503352095.3,286046997.4,N,1.5
1503352115.1,286046997.8,N,1.5
1503352135.9,286046997.6,N,1.5
1503352155.7,286046995.3,Y,0.0
1503352175.6,286046997.3,P,0.6
1503352195.4,286046996.6,P,0.8
1503352215.2,286046999.2,N,1.0
1503352235.1,286046999.2,N,1.0
1503352236.0,286046999.2,N,1.0
1503352255.8,286046999.4,N,1.0
1503352275.6,286046999.3,N,1.0
1503352295.5,286046996.9,Y,0.0
1503352315.3,286046998.7,P,0.1
1503352335.2,286046998.2,P,0.2
1503352355.9,286046998.7,P,0.2
1503352375.7,286046999.0,Y,0.0
1503352395.6,286046998.2,P,0.2
1503352415.4,286047000.4,N,1.0
1503352435.3,286047000.6,N,1.1
1503352455.1,286047000.9,N,1.1
1503352475.8,286047000.6,N,1.1
1503352495.7,286047000.9,N,1.1
1503352515.5,286047000.5,N,1.0
1503352535.4,286047001.0,N,1.0
1503352555.2,286047000.5,N,0.9
1503352575.0,286047001.0,N,0.9
1503352575.9,286047001.0,N,0.9
1503352595.8,286046998.3,N,1.0
1503352615.6,286047001.2,N,1.0
1503352635.5,286046998.3,N,1.1
1503352655.3,286046998.2,N,1.2
1503352675.1,286046998.2,N,1.2
1503352695.9,286046998.3,N,1.2
1503352715.7,286046998.4,N,1.2
1503352735.6,286046999.5,N,1.2
1503352755.4,286046999.5,N,1.2
1503352775.2,286046999.2,N,1.2
1503352795.1,286047011.9,Y,0.0
1503352796.0,286046999.3,P,0.2
